Simultaneous Nadir Overpasses (SNOs) Predictions

Prediction of SNOs between NOAA-19 and METOP-C Satellite Orbit:

Table of predicted SNOs for the next 14.0 days since TLE Epoch: 4/29/2023
Index Date (NOAA-19) Time (NOAA-19) Lat,Lon (NOAA-19) SZA (NOAA-19 ) Date (METOP-C) Time (METOP-C) Lat,Lon (METOP-C) SZA (METOP-C ) Distance(km) Time Diff (sec)
1 05/04/2023 00:59:38 -80.93, 19.70 113.20 05/04/2023 01:00:37 -80.93, 19.57 113.19 2.38 59
2 05/04/2023 01:50:32 80.93,-172.97 66.80 05/04/2023 01:51:18 80.94,-172.89 66.84 1.70 46
3 05/04/2023 02:41:37 -80.93, -5.73 113.21 05/04/2023 02:41:58 -80.94, -5.57 113.18 2.86 21
4 05/04/2023 03:32:31 80.93, 161.60 66.79 05/04/2023 03:32:40 80.93, 161.62 66.79 0.31 9
5 05/04/2023 04:23:36 -80.93, -31.16 113.22 05/04/2023 04:23:20 -80.93, -31.07 113.22 1.60 16
6 05/04/2023 05:14:29 80.93, 136.55 66.81 05/04/2023 05:14:01 80.94, 136.48 66.80 1.32 28
7 05/04/2023 06:05:34 -80.93, -56.21 113.20 05/04/2023 06:04:41 -80.94, -56.20 113.22 0.60 53



Historial Predications of SNOs between NOAA-19 and METOP-C
